DateTimeUTC,F1_A11,F1_S11,BsB_S11,BsG_S11,BsR_S11,BbsB_S11,BbsG_S11,BbsR_S11,BaB_A11,BaG_A11,BaR_A11,Tu_S11,T_S11,Uu_S11,U_S11,P_S11,T1_A11
2021-10-06T05:00:00Z,00000200,21000000,,,,,,,0000.11,0000.87,0000.12,16.3,23.6,,00.0,0667.9,30.8
2021-10-06T05:01:00Z,00000200,21000000,,,,,,,0000.23,-000.27,0000.25,16.3,23.6,,00.0,0667.9,30.9
2021-10-06T05:02:00Z,00000200,21000000,,,,,,,0000.12,0000.17,0000.00,16.3,23.6,,00.0,0667.9,30.9
2021-10-06T05:03:00Z,00000200,61000000,,,,,,,0000.30,0000.12,0000.47,16.3,23.6,,00.0,0667.9,30.9
2021-10-06T05:04:00Z,00000200,41000000,0000.07,0000.35,0000.00,0000.60,0000.31,-000.10,0000.03,0000.14,-000.16,16.8,23.5,,00.0,0668.8,30.9
2021-10-06T05:05:00Z,00000200,01000000,0000.41,0000.55,0000.04,0000.02,0000.27,-000.11,0000.20,0000.57,0000.16,16.9,23.5,,00.0,0668.9,30.9
2021-10-06T05:06:00Z,00000200,01000000,-000.49,0000.47,0000.24,0000.52,0000.27,-000.01,0000.19,-000.37,0000.18,17.0,23.5,,00.0,0668.9,30.9
2021-10-06T05:07:00Z,00000200,01000000,0000.77,0000.43,0000.37,0000.46,0000.08,0000.13,0001.09,0001.13,0000.63,17.0,23.5,,00.0,0668.9,30.9
2021-10-06T05:08:00Z,00000200,01000000,0000.27,0000.38,0000.45,0001.02,0000.31,0000.22,-000.33,-000.28,-000.52,17.0,23.5,,00.0,0668.9,31.0
2021-10-06T05:09:00Z,00000200,01000000,0000.30,0000.80,0000.16,0000.73,0000.38,0000.06,-000.64,-000.46,-000.24,16.9,23.5,,00.0,0668.9,30.9
2021-10-06T05:10:00Z,00000200,01000000,0000.40,0000.38,0000.16,-000.11,0000.19,0000.21,-000.09,-000.17,-000.15,16.9,23.4,,00.0,0668.9,30.9
2021-10-06T05:11:00Z,00000200,01000000,-000.00,0000.43,0000.18,0000.50,-000.04,0000.05,0000.02,0000.09,-000.07,16.8,23.4,,00.0,0668.9,30.9
2021-10-06T05:12:00Z,00000200,01000000,-000.26,0000.25,0000.22,-000.09,0000.22,0000.16,0000.49,0000.03,0000.13,16.7,23.4,,00.0,0668.9,30.9
2021-10-06T05:13:00Z,00000200,01000000,0000.77,0000.16,-000.04,0000.29,0000.03,0000.03,-000.33,-000.47,-000.09,16.7,23.3,,00.0,0668.9,30.9
2021-10-06T05:14:00Z,00000200,01000000,0000.15,0000.35,0000.36,0000.36,0000.42,0000.51,0000.17,0000.60,0000.33,16.6,23.3,,00.0,0668.9,30.8
2021-10-06T05:15:00Z,00000200,01000000,0001.12,0000.43,0000.19,0000.01,-000.05,0000.06,0000.52,0000.22,0000.41,16.6,23.3,,00.0,0668.9,30.8
2021-10-06T05:16:00Z,00000200,01000000,0000.71,0000.69,0000.31,-000.64,0000.25,0000.08,-000.07,0000.17,0000.29,16.7,23.3,00.0,00.0,0669.0,30.9
2021-10-06T05:17:00Z,00000200,01000000,-000.16,0000.35,0000.14,0000.76,0000.37,-000.11,0000.53,0000.53,0000.21,16.8,23.3,,00.0,0669.0,30.9
2021-10-06T05:18:00Z,00000200,01000000,0000.30,0000.66,0000.19,0000.65,0000.33,0000.21,-000.16,-000.23,-000.27,16.8,23.4,,00.0,0669.0,30.9
2021-10-06T05:19:00Z,00000200,01000000,0000.57,0000.38,0000.20,0000.63,0000.41,-000.09,0000.07,0000.64,0000.35,16.9,23.4,,00.0,0669.0,30.9
2021-10-06T05:20:00Z,00000200,01000000,-000.18,0000.39,0000.62,0000.11,0000.28,0000.13,0000.41,0000.05,-000.02,17.0,23.4,,00.0,0669.0,30.9
2021-10-06T05:21:00Z,00000200,01000000,0001.01,0000.16,0000.25,0000.56,0000.10,-000.17,0000.02,-000.16,0000.13,17.0,23.4,,00.0,0669.0,30.9
2021-10-06T05:22:00Z,00000200,01000000,0000.31,0000.47,0000.03,0000.02,0000.12,0000.19,0001.11,0001.04,0000.69,17.1,23.5,00.0,00.0,0669.1,30.9
2021-10-06T05:23:00Z,00000200,01000000,-000.24,0000.21,-000.04,0000.59,-000.01,0000.20,-000.74,-000.57,-000.38,17.0,23.5,,00.0,0669.1,30.9
2021-10-06T05:24:00Z,00000200,01000000,0000.16,0000.71,0000.00,0000.90,0000.16,-000.42,-000.03,-000.05,-000.36,17.0,23.4,,00.0,0669.1,30.9
2021-10-06T05:25:00Z,00000200,01000000,0001.26,0000.47,0000.37,0000.04,0000.07,0000.10,0000.20,0000.08,0000.07,16.9,23.4,,00.0,0669.1,30.9
2021-10-06T05:26:00Z,00000200,01000000,0000.15,0000.88,0000.48,0000.38,0000.28,0000.13,-000.21,-000.01,0000.13,16.8,23.4,,00.0,0669.1,30.9
2021-10-06T05:27:00Z,00000200,01000000,0001.04,0000.83,0000.15,-000.28,0000.12,0000.10,0000.36,0000.12,0000.22,16.8,23.4,,00.0,0669.2,30.9
2021-10-06T05:28:00Z,00000200,01000000,0000.27,0000.41,0000.32,0001.05,0000.51,0000.01,-000.43,-000.32,-000.17,16.7,23.3,,00.0,0669.2,30.9
2021-10-06T05:29:00Z,00000200,01000000,0000.51,0000.43,0000.25,0000.38,0000.03,0000.26,0000.74,0000.37,0000.24,16.7,23.3,,00.0,0669.2,30.8
2021-10-06T05:30:00Z,00000200,01000000,-000.36,0000.80,0000.15,0000.29,0000.16,0000.05,0000.04,0000.28,0000.41,16.7,23.3,,00.0,0669.2,30.8
2021-10-06T05:31:00Z,00000200,01000000,0000.17,0000.41,0000.40,0000.10,0000.33,0000.20,0000.29,0000.27,0000.09,16.7,23.3,,00.0,0669.2,30.9
2021-10-06T05:32:00Z,00000200,01000000,0000.02,0000.44,0000.19,0000.56,0000.09,0000.14,0000.36,0000.38,0000.68,16.8,23.3,,00.0,0669.3,30.9
2021-10-06T05:33:00Z,00000200,01000000,0000.80,0000.44,-000.08,0000.20,0000.41,-000.01,-000.07,0000.35,-000.23,16.9,23.3,,00.0,0669.3,30.9
2021-10-06T05:34:00Z,00000200,01000000,0000.86,0000.30,0000.26,0000.37,0000.14,0000.07,0000.14,0000.20,-000.06,16.9,23.4,,00.0,0669.3,30.9
2021-10-06T05:35:00Z,00000200,01000000,0000.63,0000.30,0000.32,0000.62,0000.21,0000.34,0000.33,0000.08,0000.01,17.0,23.4,,00.0,0669.3,30.9
2021-10-06T05:36:00Z,00000200,01000000,0000.39,0000.36,0000.11,-000.27,0000.28,0000.31,-000.01,0000.07,-000.01,17.0,23.4,,00.0,0669.3,30.9
2021-10-06T05:37:00Z,00000200,01000000,-000.03,0000.60,-000.13,0000.12,-000.09,0000.06,0000.01,0000.19,-000.01,17.1,23.5,,00.0,0669.4,30.9
2021-10-06T05:38:00Z,00000200,01000000,0000.58,0000.44,0000.51,0000.37,0000.36,0000.11,0000.22,-000.41,0000.20,17.1,23.5,,00.0,0669.3,30.9
2021-10-06T05:39:00Z,00000200,01000000,0000.81,0000.60,-000.02,0000.20,0000.17,0000.18,-000.08,-000.26,-000.12,17.0,23.5,,00.0,0669.4,30.9
2021-10-06T05:40:00Z,00000200,01000000,0000.40,0000.55,0000.55,0000.46,0000.41,0000.16,-000.04,0000.11,-000.14,17.0,23.4,,00.0,0669.4,30.9
2021-10-06T05:41:00Z,00000200,01000000,0000.39,0000.64,0000.28,0000.78,-000.01,-000.06,0000.10,-000.29,0000.15,16.9,23.4,,00.0,0669.4,30.9
2021-10-06T05:42:00Z,00000200,01000000,0000.58,0000.29,0000.36,0000.87,0000.03,0000.15,0000.13,0000.45,-000.01,16.8,23.3,,00.0,0669.4,30.9
2021-10-06T05:43:00Z,00000200,01000000,0000.15,0000.20,0000.22,0000.08,0000.03,0000.32,0000.01,0000.00,0000.23,16.8,23.3,,00.0,0669.4,30.9
2021-10-06T05:44:00Z,00000200,01000000,0000.74,0000.56,0000.23,0000.37,0000.21,0000.33,0000.07,0000.41,0000.12,16.8,23.3,,00.0,0669.4,30.8
2021-10-06T05:45:00Z,00000200,01000000,-000.31,0000.19,0000.07,0000.16,-000.06,-000.02,0000.46,0000.46,0000.34,16.8,23.3,,00.0,0669.4,30.8
2021-10-06T05:46:00Z,00000200,01000000,0000.14,0000.34,0000.19,0000.06,0000.03,-000.00,0000.28,0000.46,0000.41,16.8,23.3,,00.0,0669.4,30.9
2021-10-06T05:47:00Z,00000200,01000000,0000.27,0000.49,0000.59,0000.17,-000.11,0000.41,0000.49,0000.49,0000.58,16.8,23.3,,00.0,0669.4,30.9
2021-10-06T05:48:00Z,00000200,01000000,-000.07,0000.32,0000.20,0000.48,0000.21,0000.11,0000.22,-000.06,-000.10,16.9,23.4,,00.0,0669.4,30.9
2021-10-06T05:49:00Z,00000200,01000000,-000.37,0000.37,0000.12,0000.18,0000.02,-000.04,0000.44,0000.62,0000.08,17.0,23.4,,00.0,0669.5,30.9
2021-10-06T05:50:00Z,00000200,01000000,0000.48,0000.22,0000.31,-000.07,0000.33,0000.29,-000.17,-000.47,-000.25,17.1,23.4,,00.0,0669.5,30.9
2021-10-06T05:51:00Z,00000200,01000000,-000.42,0000.54,0000.06,0000.05,-000.11,0000.19,0000.22,0000.39,0000.12,17.1,23.5,,00.0,0669.5,30.9
2021-10-06T05:52:00Z,00000200,01000000,-000.30,0000.44,0000.28,0000.21,0000.52,0000.02,-000.35,-000.68,0000.11,17.1,23.5,,00.0,0669.5,30.9
2021-10-06T05:53:00Z,00000200,01000000,0001.19,0000.19,0000.21,-000.15,0000.16,0000.13,-000.12,0000.20,-000.23,17.0,23.5,,00.0,0669.5,30.9
2021-10-06T05:54:00Z,00000200,01000000,0000.03,0000.60,-000.06,0000.18,0000.13,0000.06,0000.39,-000.10,-000.24,17.0,23.4,,00.0,0669.5,30.9
2021-10-06T05:55:00Z,00000200,01000000,0000.53,0000.21,0000.18,-000.46,0000.03,0000.01,-000.45,-000.16,-000.31,16.9,23.4,,00.0,0669.5,30.9
2021-10-06T05:56:00Z,00000200,01000000,-000.15,0000.24,0000.01,0000.64,0000.04,-000.13,0000.24,-000.00,0000.20,16.9,23.4,,00.0,0669.5,30.9
2021-10-06T05:57:00Z,00000200,41000000,,,,,,,0000.10,0000.22,0000.03,16.9,23.4,,00.0,0669.5,30.9
2021-10-06T05:58:00Z,00000200,61000000,,,,,,,-000.21,0000.02,0000.10,16.4,23.5,,00.0,0668.5,30.8
2021-10-06T05:59:00Z,00000200,21000000,,,,,,,0000.18,-000.29,0000.07,16.4,23.6,,00.0,0668.5,30.8
